Tracking 32136 objects as of 11-Nov-2025
HD Live streaming from Space Station
objects crossing your sky now

SL-8 DEB

Track SL-8 DEB now!
10-day predictions


NORAD ID: 24818
Int'l Code: 1977-087C
Perigee: 940.4 km
Apogee: 987.0 km
Inclination: 83.0 °
Period: 104.2 minutes
Semi major axis: 7334 km
RCS: 0.0052 m2 (small)
Launch date: September 13, 1977
Source: Commonwealth of Independent States (former USSR) (CIS)
Launch site: PLESETSK MISSILE AND SPACE COMPLEX (PKMTR)

Note: This is SATELLITE DEBRIS
Your satellite tracking list
Your tracking list is empty




NASA's NSSDC Master Catalog

Two Line Element Set (TLE):
1 24818U 77087C   25315.31667134  .00000867  00000-0  79017-3 0  9997
2 24818  82.9667 256.4119 0031720 317.3034 194.5477 13.82064221419533
Source of the keplerian elements: AFSPC